Weather History for KGUS - October, 2013

Change the Weather History Date:

Friday, October 25, 2013

  Actual Average Record
Temperature  
Mean Temperature 36 °F -  
Max Temperature 48 °F 57 °F 76 °F (2012)
Min Temperature 25 °F 40 °F 25 °F (2013)
Degree Days  
Heating Degree Days 28    
Moisture  
Dew Point 28 °F    
Average Humidity 75    
Maximum Humidity 96    
Minimum Humidity 46    
Precipitation  
Precipitation 0.00 in - - ()
Sea Level Pressure  
Sea Level Pressure 30.36 in    
Wind  
Wind Speed 9 mph (WSW)    
Max Wind Speed 17 mph    
Max Gust Speed 21 mph    
Visibility 10 miles    
Events      
Averages and records for this station are not official NWS values.
T = Trace of Precipitation, MM = Missing Value Source: NWS Daily Summary

Daily Weather History Graph

Daily Weather History Graph

Search for Another Location

Airport or City:

Trip Planner

Search our weather history database for the weather conditions in past years. The results will help you decide how hot, cold, wet, or windy it might be!

Date:

Astronomy

Oct. 25, 2013 Rise Set
Actual Time 8:07 AM EDT 6:49 PM EDT
Civil Twilight 7:39 AM EDT 7:17 PM EDT
Nautical Twilight 7:07 AM EDT 7:49 PM EDT
Astronomical Twilight 6:35 AM EDT 8:21 PM EDT
Moon No Moon Rise 1:47 PM EDT (10/25)
Length of Visible Light 11h 38m
Length of Day
10h 42m
Waning Gibbous, 62% of the Moon is Illuminated
Oct 25
Waning Gibbous
Oct 26
Last Quarter
Nov 3
New
Nov 10
First Quarter
Nov 17
Full

Hourly Weather History & Observations

Time (EDT) Temp. Windchill Dew Point Humidity Pressure Visibility Wind Dir Wind Speed Gust Speed Precip Events Conditions
12:58 AM 28.2 °F 22.0 °F 25.3 °F 89% 30.32 in 10.0 mi WNW 5.8 mph - N/A   Clear
1:58 AM 27.0 °F 19.5 °F 25.2 °F 93% 30.32 in 10.0 mi West 6.9 mph - N/A   Clear
2:58 AM 27.1 °F 20.7 °F 25.2 °F 92% 30.34 in 10.0 mi West 5.8 mph - N/A   Clear
3:58 AM 28.2 °F 20.2 °F 25.9 °F 91% 30.35 in 10.0 mi WSW 8.1 mph - N/A   Clear
4:58 AM 27.3 °F 18.4 °F 25.7 °F 94% 30.36 in 10.0 mi WSW 9.2 mph - N/A   Clear
5:58 AM 26.4 °F 18.0 °F 25.2 °F 95% 30.38 in 10.0 mi West 8.1 mph - N/A   Clear
6:58 AM 26.1 °F 17.6 °F 25.0 °F 96% 30.40 in 10.0 mi West 8.1 mph - N/A   Clear
7:58 AM 25.7 °F 17.1 °F 24.8 °F 96% 30.42 in 10.0 mi West 8.1 mph - N/A   Clear
8:58 AM 28.0 °F 20.8 °F 26.6 °F 94% 30.43 in 10.0 mi West 6.9 mph - N/A   Clear
9:58 AM 32.0 °F 23.6 °F 28.9 °F 88% 30.44 in 10.0 mi West 10.4 mph - N/A   Clear
10:30 AM 33.8 °F 26.4 °F 32.0 °F 93% 30.40 in 10.0 mi West 9.2 mph - N/A   Clear
10:58 AM 36.5 °F 31.0 °F 31.1 °F 81% 30.45 in 10.0 mi West 6.9 mph - N/A   Clear
11:58 AM 40.8 °F 33.7 °F 32.0 °F 71% 30.44 in 10.0 mi West 12.7 mph - N/A   Clear
12:58 PM 44.6 °F 37.4 °F 30.7 °F 58% 30.43 in 10.0 mi WNW 16.1 mph - N/A   Clear
1:58 PM 46.6 °F - 28.0 °F 49% 30.40 in 10.0 mi West 13.8 mph 18.4 mph N/A   Scattered Clouds
2:19 PM 48.2 °F - 28.4 °F 46% 30.37 in 10.0 mi West 11.5 mph - N/A   Partly Cloudy
2:58 PM 46.2 °F 39.3 °F 27.3 °F 48% 30.38 in 10.0 mi West 17.3 mph 20.7 mph N/A   Scattered Clouds
3:58 PM 48.0 °F - 28.2 °F 46% 30.36 in 10.0 mi WSW 13.8 mph - N/A   Scattered Clouds
4:58 PM 48.0 °F - 28.2 °F 46% 30.34 in 10.0 mi WSW 13.8 mph - N/A   Mostly Cloudy
5:58 PM 46.2 °F 41.7 °F 27.1 °F 47% 30.32 in 10.0 mi WSW 9.2 mph - N/A   Scattered Clouds
6:58 PM 39.0 °F 32.8 °F 29.7 °F 69% 30.32 in 10.0 mi SW 9.2 mph - N/A   Clear
7:58 PM 35.1 °F 28.6 °F 28.9 °F 78% 30.30 in 10.0 mi SSW 8.1 mph - N/A   Clear
8:58 PM 35.6 °F 28.6 °F 29.1 °F 77% 30.28 in 10.0 mi SSW 9.2 mph - N/A   Clear
9:58 PM 36.3 °F 29.5 °F 28.9 °F 75% 30.26 in 10.0 mi SSW 9.2 mph - N/A   Clear
10:58 PM 37.4 °F 28.9 °F 28.0 °F 69% 30.24 in 10.0 mi SSW 13.8 mph - N/A   Clear
11:58 PM 37.8 °F 29.8 °F 27.5 °F 67% 30.23 in 10.0 mi SSW 12.7 mph - N/A   Clear